ASX101 EHAM-LOWW

Flight info

Callsign ASX101
Flight time 1h 21m
Altitude 39000
Route ARNEM L620 HMM DCT NOMKA DCT OMELO DCT EVIKU DCT BITSI DCT MIKOV MIKOV8W
Aircraft C750/M-SBDE3FGHRWXY/S

Departure

Time 2026-05-05 19:51
Airport Amsterdam Airport Schiphol (EHAM)

Arrival

Time 2026-05-05 21:12
Airport Vienna International Airport (LOWW)
Time Latitude Longitude Altitude Speed Heading
2026-05-05 19:26 52.31172 4.80421 -4 ft 0 kts 311°
2026-05-05 19:36 52.31168 4.80429 -4 ft 4 kts 316°
2026-05-05 19:37 52.31148 4.80445 -4 ft 4 kts 18°
2026-05-05 19:37 52.31134 4.80433 -4 ft 1 kts 41°
2026-05-05 19:37 52.31133 4.80431 -4 ft 0 kts 41°
2026-05-05 19:41 52.31134 4.80433 -4 ft 2 kts 41°
2026-05-05 19:41 52.31153 4.80460 -4 ft 5 kts 41°
2026-05-05 19:41 52.31180 4.80498 -4 ft 5 kts 41°
2026-05-05 19:42 52.31205 4.80534 -4 ft 5 kts 41°
2026-05-05 19:42 52.31237 4.80546 -4 ft 5 kts 329°
2026-05-05 19:42 52.31249 4.80503 -4 ft 4 kts 271°
2026-05-05 19:42 52.31244 4.80460 -4 ft 4 kts 260°
2026-05-05 19:43 52.31238 4.80421 -4 ft 4 kts 248°
2026-05-05 19:43 52.31211 4.80374 -4 ft 7 kts 220°
2026-05-05 19:43 52.31173 4.80320 -4 ft 8 kts 221°
2026-05-05 19:43 52.31127 4.80255 -4 ft 9 kts 221°
2026-05-05 19:44 52.31076 4.80180 -4 ft 11 kts 221°
2026-05-05 19:44 52.31017 4.80099 -4 ft 12 kts 220°
2026-05-05 19:44 52.30955 4.80006 -5 ft 13 kts 220°
2026-05-05 19:44 52.30885 4.79907 -5 ft 14 kts 221°
2026-05-05 19:45 52.30811 4.79800 -5 ft 15 kts 222°
2026-05-05 19:45 52.30730 4.79685 -4 ft 16 kts 221°
2026-05-05 19:45 52.30647 4.79565 -4 ft 16 kts 220°
2026-05-05 19:45 52.30566 4.79449 -4 ft 15 kts 222°
2026-05-05 19:46 52.30489 4.79339 -4 ft 14 kts 221°
2026-05-05 19:46 52.30416 4.79232 -5 ft 14 kts 222°
2026-05-05 19:46 52.30347 4.79137 -5 ft 13 kts 220°
2026-05-05 19:46 52.30283 4.79048 -5 ft 12 kts 219°
2026-05-05 19:47 52.30224 4.78964 -5 ft 11 kts 221°
2026-05-05 19:47 52.30167 4.78886 -5 ft 10 kts 219°
2026-05-05 19:47 52.30112 4.78815 -4 ft 10 kts 218°
2026-05-05 19:47 52.30065 4.78746 -4 ft 9 kts 223°
2026-05-05 19:48 52.30036 4.78665 -4 ft 8 kts 263°
2026-05-05 19:48 52.30055 4.78596 -5 ft 4 kts 310°
2026-05-05 19:48 52.30060 4.78585 -5 ft 0 kts 309°
2026-05-05 19:50 52.30069 4.78567 -5 ft 4 kts 308°
2026-05-05 19:50 52.30097 4.78509 -6 ft 9 kts 308°
2026-05-05 19:50 52.30161 4.78525 -7 ft 17 kts 40°
2026-05-05 19:51 52.30470 4.78962 -9 ft 111 kts 42°
2026-05-05 19:51 52.31125 4.79947 388 ft 131 kts 42°
2026-05-05 19:51 52.31766 4.80983 1114 ft 131 kts 44°
2026-05-05 19:51 52.32325 4.82342 1438 ft 155 kts 60°
2026-05-05 19:52 52.32612 4.84069 1587 ft 164 kts 81°
2026-05-05 19:52 52.32376 4.85889 1610 ft 173 kts 112°
2026-05-05 19:52 52.31557 4.87377 1710 ft 173 kts 126°
2026-05-05 19:52 52.30934 4.88999 2390 ft 170 kts 108°
2026-05-05 19:53 52.30485 4.90807 3139 ft 173 kts 103°
2026-05-05 19:53 52.30166 4.92717 3887 ft 177 kts 99°
2026-05-05 19:53 52.29832 4.94697 4641 ft 185 kts 102°
2026-05-05 19:53 52.29502 4.96594 5189 ft 198 kts 102°
2026-05-05 19:54 52.29093 4.98951 5763 ft 215 kts 103°
2026-05-05 19:54 52.28668 5.01396 6284 ft 234 kts 103°
2026-05-05 19:54 52.28198 5.04098 6837 ft 261 kts 104°
2026-05-05 19:54 52.27679 5.07074 7394 ft 278 kts 104°
2026-05-05 19:55 52.27144 5.10128 7915 ft 281 kts 105°
2026-05-05 19:55 52.26618 5.13135 8420 ft 285 kts 105°
2026-05-05 19:55 52.26132 5.15909 8885 ft 286 kts 105°
2026-05-05 19:55 52.25570 5.19111 9413 ft 288 kts 105°
2026-05-05 19:56 52.25014 5.22274 9923 ft 290 kts 105°
2026-05-05 19:56 52.24465 5.25502 10401 ft 304 kts 103°
2026-05-05 19:56 52.24230 5.28970 10863 ft 320 kts 93°
2026-05-05 19:56 52.24073 5.32739 11396 ft 336 kts 93°
2026-05-05 19:57 52.23914 5.35997 11844 ft 347 kts 94°
2026-05-05 19:57 52.23773 5.38608 12189 ft 354 kts 94°
2026-05-05 19:57 52.23487 5.44034 12906 ft 363 kts 94°
2026-05-05 19:57 52.23294 5.47927 13413 ft 362 kts 94°
2026-05-05 19:58 52.23062 5.52037 14023 ft 366 kts 97°
2026-05-05 19:58 52.22428 5.55592 14559 ft 369 kts 111°
2026-05-05 19:58 52.21524 5.59179 15238 ft 371 kts 112°
2026-05-05 19:58 52.20942 5.61476 15642 ft 373 kts 112°
2026-05-05 19:59 52.19986 5.65419 16329 ft 376 kts 111°
2026-05-05 19:59 52.19041 5.69408 17066 ft 379 kts 111°
2026-05-05 19:59 52.18092 5.73314 17812 ft 382 kts 112°
2026-05-05 19:59 52.17080 5.77406 18501 ft 386 kts 112°
2026-05-05 20:00 52.16163 5.81148 19094 ft 391 kts 112°
2026-05-05 20:00 52.15210 5.85066 19732 ft 394 kts 112°
2026-05-05 20:00 52.14272 5.88902 20342 ft 398 kts 114°
2026-05-05 20:00 52.13235 5.93110 21050 ft 401 kts 113°
2026-05-05 20:01 52.12198 5.97319 21822 ft 403 kts 114°
2026-05-05 20:01 52.11324 6.00865 22336 ft 407 kts 114°
2026-05-05 20:01 52.10250 6.05218 23012 ft 411 kts 114°
2026-05-05 20:01 52.09523 6.08935 23472 ft 418 kts 105°
2026-05-05 20:02 52.09049 6.13504 24021 ft 421 kts 101°
2026-05-05 20:02 52.08570 6.18219 24593 ft 424 kts 102°
2026-05-05 20:02 52.08061 6.22940 25135 ft 427 kts 102°
2026-05-05 20:02 52.07558 6.27687 25684 ft 430 kts 102°
2026-05-05 20:03 52.07220 6.30977 26056 ft 432 kts 102°
2026-05-05 20:03 52.06666 6.36327 26666 ft 435 kts 102°
2026-05-05 20:03 52.06149 6.41177 27203 ft 439 kts 103°
2026-05-05 20:03 52.05625 6.46073 27774 ft 441 kts 102°
2026-05-05 20:04 52.05103 6.51000 28350 ft 444 kts 102°
2026-05-05 20:04 52.04747 6.54353 28735 ft 446 kts 103°
2026-05-05 20:04 52.04134 6.60057 29369 ft 450 kts 103°
2026-05-05 20:04 52.03591 6.65078 29910 ft 453 kts 103°
2026-05-05 20:05 52.03056 6.70028 30360 ft 456 kts 103°
2026-05-05 20:05 52.02507 6.75086 30817 ft 458 kts 103°
2026-05-05 20:05 52.01801 6.80033 31409 ft 454 kts 108°
2026-05-05 20:05 52.01011 6.84961 32121 ft 451 kts 108°
2026-05-05 20:06 52.00242 6.89887 32783 ft 449 kts 108°
2026-05-05 20:06 51.99478 6.94791 33471 ft 447 kts 108°
2026-05-05 20:06 51.98704 6.99657 34110 ft 445 kts 109°
2026-05-05 20:06 51.97925 7.04517 34547 ft 447 kts 109°
2026-05-05 20:07 51.97141 7.09409 34969 ft 449 kts 108°
2026-05-05 20:07 51.96278 7.14282 35366 ft 450 kts 110°
2026-05-05 20:07 51.95370 7.19148 35813 ft 452 kts 110°
2026-05-05 20:07 51.94469 7.24046 36256 ft 455 kts 110°
2026-05-05 20:08 51.93561 7.28970 36713 ft 457 kts 110°
2026-05-05 20:08 51.92639 7.33911 37162 ft 459 kts 110°
2026-05-05 20:08 51.91709 7.38870 37648 ft 461 kts 110°
2026-05-05 20:08 51.90780 7.43844 38120 ft 463 kts 110°
2026-05-05 20:09 51.90162 7.47148 38441 ft 464 kts 110°
2026-05-05 20:09 51.88910 7.53804 38842 ft 470 kts 110°
2026-05-05 20:09 51.88270 7.57189 38837 ft 478 kts 110°
2026-05-05 20:09 51.87311 7.62253 38838 ft 489 kts 109°
2026-05-05 20:10 51.86307 7.67561 38848 ft 499 kts 109°
2026-05-05 20:10 51.85364 7.73034 38844 ft 510 kts 105°
2026-05-05 20:10 51.84602 7.78694 38849 ft 521 kts 104°
2026-05-05 20:11 51.83153 7.89914 38848 ft 536 kts 105°
2026-05-05 20:11 51.81499 8.01781 38836 ft 536 kts 104°
2026-05-05 20:12 51.79908 8.13643 38830 ft 536 kts 105°
2026-05-05 20:12 51.78297 8.25169 38826 ft 537 kts 105°
2026-05-05 20:13 51.76671 8.36984 38809 ft 537 kts 105°
2026-05-05 20:13 51.75019 8.48709 38819 ft 537 kts 105°
2026-05-05 20:14 51.73377 8.60385 38825 ft 537 kts 105°
2026-05-05 20:14 51.71702 8.72137 38819 ft 537 kts 105°
2026-05-05 20:15 51.70013 8.83931 38818 ft 540 kts 105°
2026-05-05 20:15 51.68310 8.95720 38816 ft 540 kts 105°
2026-05-05 20:16 51.66633 9.07241 38818 ft 539 kts 105°
2026-05-05 20:16 51.64911 9.18997 38804 ft 539 kts 106°
2026-05-05 20:17 51.63172 9.30734 38803 ft 539 kts 106°
2026-05-05 20:17 51.61430 9.42470 38813 ft 539 kts 106°
2026-05-05 20:18 51.59669 9.54185 38810 ft 539 kts 106°
2026-05-05 20:18 51.57915 9.65815 38806 ft 539 kts 106°
2026-05-05 20:19 51.56132 9.77520 38803 ft 539 kts 107°
2026-05-05 20:19 51.54339 9.89225 38797 ft 540 kts 107°
2026-05-05 20:20 51.52533 10.00916 38795 ft 539 kts 107°
2026-05-05 20:20 51.50717 10.12591 38792 ft 539 kts 107°
2026-05-05 20:21 51.48893 10.24240 38788 ft 538 kts 107°
2026-05-05 20:21 51.47060 10.35851 38793 ft 537 kts 107°
2026-05-05 20:22 51.45215 10.47467 38809 ft 537 kts 107°
2026-05-05 20:22 51.43372 10.59078 38811 ft 538 kts 107°
2026-05-05 20:23 51.41539 10.70708 38802 ft 538 kts 108°
2026-05-05 20:23 51.39674 10.82322 38804 ft 538 kts 108°
2026-05-05 20:24 51.37815 10.93924 38804 ft 538 kts 108°
2026-05-05 20:24 51.35935 11.05500 38802 ft 537 kts 108°
2026-05-05 20:25 51.34048 11.17082 38791 ft 539 kts 108°
2026-05-05 20:25 51.32142 11.28676 38792 ft 539 kts 108°
2026-05-05 20:26 51.30231 11.40240 38795 ft 539 kts 108°
2026-05-05 20:26 51.28304 11.51808 38788 ft 539 kts 108°
2026-05-05 20:27 51.26364 11.63384 38805 ft 541 kts 108°
2026-05-05 20:27 51.24453 11.74713 38802 ft 541 kts 109°
2026-05-05 20:28 51.22555 11.85889 38803 ft 541 kts 109°
2026-05-05 20:28 51.20689 11.96806 38783 ft 540 kts 109°
2026-05-05 20:29 51.18694 12.08403 38781 ft 542 kts 109°
2026-05-05 20:29 51.16791 12.19398 38784 ft 539 kts 109°
2026-05-05 20:30 51.14808 12.30782 38786 ft 535 kts 110°
2026-05-05 20:30 51.13068 12.40701 38789 ft 535 kts 110°
2026-05-05 20:31 51.11219 12.51189 38797 ft 539 kts 110°
2026-05-05 20:31 51.09295 12.62045 38790 ft 539 kts 110°
2026-05-05 20:32 51.07516 12.72023 38807 ft 538 kts 110°
2026-05-05 20:32 51.05525 12.83110 38800 ft 538 kts 110°
2026-05-05 20:33 51.03589 12.93846 38790 ft 540 kts 110°
2026-05-05 20:33 51.01505 13.05320 38774 ft 541 kts 110°
2026-05-05 20:34 50.99556 13.15974 38771 ft 540 kts 110°
2026-05-05 20:34 50.97499 13.27182 38775 ft 540 kts 110°
2026-05-05 20:35 50.95386 13.38598 38773 ft 541 kts 110°
2026-05-05 20:35 50.93258 13.50044 38777 ft 542 kts 110°
2026-05-05 20:36 50.91147 13.61312 38780 ft 541 kts 110°
2026-05-05 20:36 50.88994 13.72748 38775 ft 541 kts 110°
2026-05-05 20:37 50.86843 13.84096 38775 ft 541 kts 110°
2026-05-05 20:37 50.84444 13.95343 38762 ft 536 kts 118°
2026-05-05 20:38 50.80483 14.05093 38757 ft 526 kts 135°
2026-05-05 20:38 50.75170 14.12892 38769 ft 519 kts 144°
2026-05-05 20:39 50.69792 14.20040 38753 ft 521 kts 141°
2026-05-05 20:39 50.64541 14.28004 38759 ft 519 kts 142°
2026-05-05 20:40 50.59109 14.35488 38747 ft 519 kts 142°
2026-05-05 20:40 50.53811 14.43231 38742 ft 520 kts 141°
2026-05-05 20:41 50.48433 14.50766 38751 ft 519 kts 142°
2026-05-05 20:41 50.43161 14.58588 38740 ft 523 kts 139°
2026-05-05 20:42 50.37974 14.66466 38744 ft 522 kts 140°
2026-05-05 20:42 50.32745 14.74358 38730 ft 522 kts 140°
2026-05-05 20:43 50.27517 14.82257 38730 ft 522 kts 140°
2026-05-05 20:43 50.22276 14.90117 38724 ft 525 kts 140°
2026-05-05 20:44 50.17001 14.98033 38733 ft 528 kts 140°
2026-05-05 20:44 50.11704 15.05933 38739 ft 526 kts 140°
2026-05-05 20:45 50.03766 15.17742 38737 ft 526 kts 140°
2026-05-05 20:45 49.98465 15.25592 38739 ft 529 kts 140°
2026-05-05 20:46 49.95826 15.29498 38147 ft 518 kts 140°
2026-05-05 20:46 49.93256 15.33296 37485 ft 501 kts 140°
2026-05-05 20:46 49.90784 15.36939 36863 ft 480 kts 140°
2026-05-05 20:46 49.88408 15.40430 36276 ft 461 kts 140°
2026-05-05 20:47 49.86132 15.43770 35707 ft 446 kts 140°
2026-05-05 20:47 49.83907 15.47032 35144 ft 436 kts 140°
2026-05-05 20:47 49.81711 15.50248 34584 ft 433 kts 140°
2026-05-05 20:47 49.79512 15.53461 34013 ft 439 kts 139°
2026-05-05 20:48 49.77273 15.56731 33501 ft 444 kts 139°
2026-05-05 20:48 49.75008 15.60038 32898 ft 452 kts 139°
2026-05-05 20:48 49.72710 15.63389 32304 ft 456 kts 139°
2026-05-05 20:48 49.70396 15.66755 31692 ft 459 kts 139°
2026-05-05 20:49 49.68061 15.70148 31088 ft 461 kts 139°
2026-05-05 20:49 49.65726 15.73537 30479 ft 463 kts 139°
2026-05-05 20:49 49.63369 15.76955 29858 ft 464 kts 139°
2026-05-05 20:49 49.61023 15.80351 29209 ft 459 kts 139°
2026-05-05 20:50 49.58715 15.83688 28624 ft 452 kts 139°
2026-05-05 20:50 49.57196 15.85881 28230 ft 449 kts 139°
2026-05-05 20:50 49.54164 15.90248 27445 ft 444 kts 139°
2026-05-05 20:50 49.51916 15.93485 26868 ft 441 kts 139°
2026-05-05 20:51 49.49683 15.96696 26297 ft 438 kts 139°
2026-05-05 20:51 49.47497 15.99834 25738 ft 434 kts 139°
2026-05-05 20:51 49.45277 16.03017 25161 ft 430 kts 139°
2026-05-05 20:51 49.43098 16.06136 24599 ft 426 kts 139°
2026-05-05 20:52 49.40938 16.09226 24047 ft 422 kts 139°
2026-05-05 20:52 49.38803 16.12275 23495 ft 419 kts 139°
2026-05-05 20:52 49.36704 16.15270 22909 ft 414 kts 139°
2026-05-05 20:52 49.34607 16.18257 22369 ft 410 kts 139°
2026-05-05 20:53 49.32523 16.21223 21836 ft 408 kts 139°
2026-05-05 20:53 49.30341 16.23947 21261 ft 402 kts 150°
2026-05-05 20:53 49.27868 16.25844 20781 ft 397 kts 156°
2026-05-05 20:53 49.25378 16.27661 20254 ft 395 kts 156°
2026-05-05 20:54 49.22934 16.29482 19745 ft 392 kts 155°
2026-05-05 20:54 49.20492 16.31309 19229 ft 388 kts 156°
2026-05-05 20:54 49.18072 16.33095 18723 ft 385 kts 156°
2026-05-05 20:54 49.15669 16.34860 18216 ft 382 kts 156°
2026-05-05 20:55 49.13279 16.36625 17684 ft 379 kts 155°
2026-05-05 20:55 49.10916 16.38372 17185 ft 376 kts 155°
2026-05-05 20:55 49.08569 16.40100 16692 ft 373 kts 156°
2026-05-05 20:55 49.06229 16.41818 16221 ft 373 kts 156°
2026-05-05 20:56 49.04683 16.42955 15892 ft 371 kts 155°
2026-05-05 20:56 49.02369 16.44657 15406 ft 369 kts 155°
2026-05-05 20:56 49.00059 16.46351 14923 ft 367 kts 156°
2026-05-05 20:56 48.97761 16.48034 14425 ft 365 kts 156°
2026-05-05 20:57 48.94794 16.50208 14008 ft 355 kts 156°
2026-05-05 20:57 48.93301 16.51298 13713 ft 359 kts 156°
2026-05-05 20:57 48.91062 16.52933 13217 ft 356 kts 156°
2026-05-05 20:57 48.88835 16.54561 12745 ft 353 kts 156°
2026-05-05 20:58 48.86627 16.56171 12277 ft 352 kts 156°
2026-05-05 20:58 48.84391 16.57612 11766 ft 348 kts 166°
2026-05-05 20:58 48.82039 16.57695 11164 ft 332 kts 191°
2026-05-05 20:58 48.79913 16.56642 10704 ft 311 kts 202°
2026-05-05 20:59 48.78013 16.55371 10287 ft 290 kts 203°
2026-05-05 20:59 48.76235 16.54289 9864 ft 279 kts 201°
2026-05-05 20:59 48.74435 16.53337 9407 ft 270 kts 200°
2026-05-05 20:59 48.72674 16.52382 8936 ft 270 kts 201°
2026-05-05 21:00 48.70908 16.51375 8477 ft 273 kts 202°
2026-05-05 21:00 48.69137 16.50369 8042 ft 272 kts 201°
2026-05-05 21:00 48.67355 16.49373 7600 ft 274 kts 200°
2026-05-05 21:00 48.65573 16.48378 7160 ft 272 kts 201°
2026-05-05 21:01 48.63818 16.47396 6744 ft 264 kts 201°
2026-05-05 21:01 48.62128 16.46450 6331 ft 254 kts 201°
2026-05-05 21:01 48.60495 16.45537 5896 ft 246 kts 200°
2026-05-05 21:01 48.58909 16.44651 5439 ft 240 kts 200°
2026-05-05 21:02 48.57348 16.43780 5001 ft 239 kts 201°
2026-05-05 21:02 48.55828 16.42933 4980 ft 227 kts 202°
2026-05-05 21:02 48.54337 16.42100 4981 ft 230 kts 203°
2026-05-05 21:02 48.52790 16.41257 4989 ft 242 kts 199°
2026-05-05 21:03 48.51102 16.41215 4953 ft 248 kts 168°
2026-05-05 21:03 48.49433 16.41903 5001 ft 251 kts 167°
2026-05-05 21:03 48.47733 16.42553 5003 ft 253 kts 167°
2026-05-05 21:03 48.46027 16.43260 4998 ft 253 kts 166°
2026-05-05 21:04 48.44338 16.43981 5006 ft 252 kts 166°
2026-05-05 21:04 48.42678 16.44704 5001 ft 251 kts 166°
2026-05-05 21:04 48.41069 16.45395 4996 ft 246 kts 166°
2026-05-05 21:04 48.39419 16.46099 4981 ft 247 kts 166°
2026-05-05 21:05 48.37741 16.46815 4983 ft 253 kts 166°
2026-05-05 21:05 48.36048 16.47552 4990 ft 253 kts 166°
2026-05-05 21:05 48.34352 16.48277 4990 ft 255 kts 166°
2026-05-05 21:05 48.32631 16.49010 4740 ft 256 kts 167°
2026-05-05 21:06 48.30987 16.49715 4403 ft 230 kts 167°
2026-05-05 21:06 48.29598 16.50321 4105 ft 187 kts 167°
2026-05-05 21:06 48.28441 16.50824 3881 ft 164 kts 168°
2026-05-05 21:06 48.27410 16.51270 3686 ft 145 kts 170°
2026-05-05 21:07 48.26475 16.51667 3510 ft 134 kts 171°
2026-05-05 21:07 48.25612 16.52036 3347 ft 126 kts 172°
2026-05-05 21:07 48.24836 16.52365 3198 ft 127 kts 172°
2026-05-05 21:07 48.23932 16.52747 3030 ft 130 kts 172°
2026-05-05 21:08 48.23066 16.53115 2858 ft 129 kts 171°
2026-05-05 21:08 48.22210 16.53480 2688 ft 127 kts 171°
2026-05-05 21:08 48.21365 16.53840 2518 ft 126 kts 171°
2026-05-05 21:08 48.20531 16.54194 2356 ft 125 kts 172°
2026-05-05 21:09 48.19721 16.54541 2188 ft 116 kts 172°
2026-05-05 21:09 48.18983 16.54850 2038 ft 105 kts 172°
2026-05-05 21:09 48.18306 16.55140 1898 ft 98 kts 171°
2026-05-05 21:09 48.17670 16.55408 1770 ft 96 kts 169°
2026-05-05 21:10 48.17022 16.55679 1655 ft 97 kts 168°
2026-05-05 21:10 48.16352 16.55951 1500 ft 99 kts 167°
2026-05-05 21:10 48.15698 16.56242 1382 ft 97 kts 164°
2026-05-05 21:10 48.15075 16.56528 1317 ft 97 kts 165°
2026-05-05 21:11 48.14405 16.56810 1172 ft 102 kts 167°
2026-05-05 21:11 48.13733 16.57103 1043 ft 100 kts 165°
2026-05-05 21:11 48.13047 16.57410 928 ft 108 kts 166°
2026-05-05 21:11 48.12303 16.57692 731 ft 112 kts 165°
2026-05-05 21:12 48.11574 16.57992 627 ft 103 kts 163°
2026-05-05 21:12 48.10958 16.58249 612 ft 83 kts 164°
2026-05-05 21:12 48.10599 16.58398 608 ft 42 kts 163°
2026-05-05 21:12 48.10378 16.58467 616 ft 29 kts 180°
2026-05-05 21:13 48.10190 16.58424 605 ft 23 kts 193°
2026-05-05 21:13 48.10142 16.58329 605 ft 11 kts 304°
2026-05-05 21:13 48.10212 16.58282 608 ft 11 kts 343°
2026-05-05 21:13 48.10285 16.58254 610 ft 11 kts 343°
2026-05-05 21:14 48.10371 16.58217 610 ft 14 kts 342°
2026-05-05 21:14 48.10473 16.58167 605 ft 17 kts 341°
2026-05-05 21:14 48.10591 16.58129 608 ft 18 kts 343°
2026-05-05 21:14 48.10721 16.58069 609 ft 21 kts 343°
2026-05-05 21:15 48.10865 16.58006 608 ft 23 kts 343°
2026-05-05 21:15 48.10998 16.57865 606 ft 25 kts 314°
2026-05-05 21:15 48.11091 16.57638 608 ft 25 kts 295°
2026-05-05 21:15 48.11165 16.57401 610 ft 26 kts 296°
2026-05-05 21:16 48.11249 16.57151 612 ft 25 kts 296°
2026-05-05 21:16 48.11324 16.56917 607 ft 26 kts 296°
2026-05-05 21:16 48.11408 16.56665 608 ft 28 kts 296°
2026-05-05 21:16 48.11483 16.56432 611 ft 25 kts 296°
2026-05-05 21:17 48.11557 16.56204 608 ft 24 kts 297°
2026-05-05 21:17 48.11631 16.55979 614 ft 24 kts 296°
2026-05-05 21:17 48.11702 16.55759 606 ft 23 kts 295°
2026-05-05 21:17 48.11773 16.55544 614 ft 23 kts 297°
2026-05-05 21:18 48.11842 16.55332 610 ft 22 kts 295°
2026-05-05 21:18 48.11909 16.55125 608 ft 22 kts 296°
2026-05-05 21:18 48.11973 16.54922 606 ft 21 kts 296°
2026-05-05 21:18 48.12040 16.54726 614 ft 21 kts 297°
2026-05-05 21:19 48.12102 16.54531 609 ft 21 kts 294°
2026-05-05 21:19 48.12164 16.54341 614 ft 20 kts 296°
2026-05-05 21:19 48.12224 16.54156 610 ft 20 kts 295°
2026-05-05 21:19 48.12283 16.53974 613 ft 19 kts 297°
2026-05-05 21:20 48.12341 16.53795 612 ft 19 kts 295°
2026-05-05 21:20 48.12401 16.53640 606 ft 15 kts 337°
2026-05-05 21:20 48.12505 16.53635 610 ft 15 kts
2026-05-05 21:20 48.12555 16.53662 606 ft 0 kts 23°
2026-05-05 21:21 48.12558 16.53664 606 ft 1 kts 23°
2026-05-05 21:21 48.12571 16.53673 606 ft 4 kts 24°
2026-05-05 21:21 48.12612 16.53703 611 ft 8 kts 37°
2026-05-05 21:22 48.12647 16.53750 606 ft 4 kts 352°
2026-05-05 21:22 48.12660 16.53722 610 ft 3 kts 296°
2026-05-05 21:22 48.12667 16.53700 606 ft 1 kts 295°
2026-05-05 21:22 48.12668 16.53697 606 ft 0 kts 295°